Tracking 19224 objects as of 22-Jul-2018
HD Live streaming from Space Station
objects crossing your sky now

FLOCK 2EP-5


FLOCK 2EP-5 is no longer on orbit
FLOCK 2EP-5 is classified as:


NORAD ID: 41567
Int'l Code: 1998-067JT
Perigee: N/A
Apogee: N/A
Inclination: N/A
Period: N/A
Semi major axis: N/A
RCS: N/A
Launch date: November 20, 1998
Source: United States (US)
Launch site: ()
Decay date: 2018-06-27
aabbcc
Your satellite tracking list
Your tracking list is empty




NASA's NSSDC Master Catalog

Two Line Element Set (TLE):
1 41567U 98067JR  18178.40169972  .11398691  12446-4  92239-3 0  9993
2 41567  51.6189 248.8124 0007910 305.1771  54.8513 16.38988334118767
Source of the keplerian elements: AFSPC